Location: Arcones
(41.1182°N, 3.7238°W)
Time: 03:30:12
(UTC+00:00)

Cosmos 2263 Rocket - Pass Details

Date: 19 March 2026
Orbit: 823 x 846 km, 71.0° (Epoch: 17 April)

Event Time Altitude Azimuth Distance (km) Brightness Sun altitude
Rises 20:56:19 0° 348° (NNW) 3,395 5.9 -28.1°
Reaches altitude 10° 20:59:31 10° 5° (N) 2,452 4.8 -28.7°
Enters shadow 21:01:45 17° 27° (NNE) 2,002 4.1 -29.0°
